Weather History for Fairmont, MN

Change the Weather History Date:

Thursday, November 7, 2013

  Actual Average Record
Temperature  
Mean Temperature 32 °F -  
Max Temperature 37 °F 45 °F 75 °F (2001)
Min Temperature 26 °F 27 °F -1 °F (1991)
Degree Days  
Heating Degree Days 34    
Moisture  
Dew Point 25 °F    
Average Humidity 75    
Maximum Humidity 93    
Minimum Humidity 56    
Precipitation  
Precipitation 0.01 in - - ()
Sea Level Pressure  
Sea Level Pressure 30.23 in    
Wind  
Wind Speed 10 mph (West)    
Max Wind Speed 17 mph    
Max Gust Speed 23 mph    
Visibility 9 miles    
Events      
Averages and records for this station are not official NWS values.
T = Trace of Precipitation, MM = Missing Value Source: NWS Daily Summary

Daily Weather History Graph

Daily Weather History Graph

Search for Another Location

Airport:

Trip Planner

Search our weather history database for the weather conditions in past years. The results will help you decide how hot, cold, wet, or windy it might be!

Date:

Astronomy

Nov. 07, 2013 Rise Set
Actual Time 7:01 AM CST 5:00 PM CST
Civil Twilight 6:31 AM CST 5:30 PM CST
Nautical Twilight 5:57 AM CST 6:05 PM CST
Astronomical Twilight 5:23 AM CST 6:38 PM CST
Moon 11:12 AM CST (11/7) 9:11 PM CST (11/7)
Length of Visible Light 10h 59m
Length of Day
9h 58m
Waxing Crescent, 23% of the Moon is Illuminated
Nov 7
Waxing Crescent
Nov 9
First Quarter
Nov 17
Full
Nov 25
Last Quarter
Dec 2
New

Hourly Weather History & Observations

Time (CST) Temp. Windchill Dew Point Humidity Pressure Visibility Wind Dir Wind Speed Gust Speed Precip Events Conditions
12:15 AM 30.2 °F 22.6 °F 26.6 °F 86% 30.20 in 10.0 mi West 8.1 mph - N/A   Overcast
12:35 AM 30.2 °F 20.8 °F 26.6 °F 86% 30.19 in 10.0 mi West 11.5 mph - N/A   Overcast
12:55 AM 30.2 °F 23.4 °F 26.6 °F 86% 30.19 in 10.0 mi West 6.9 mph - N/A   Overcast
1:15 AM 30.2 °F 21.3 °F 26.6 °F 86% 30.19 in 10.0 mi WNW 10.4 mph - N/A   Overcast
1:35 AM 32.0 °F 23.0 °F 26.6 °F 80% 30.19 in 10.0 mi WNW 11.5 mph 16.1 mph N/A   Overcast
1:55 AM 32.0 °F 24.8 °F 26.6 °F 80% 30.19 in 10.0 mi NW 8.1 mph - N/A   Overcast
2:15 AM 30.2 °F 25.4 °F 26.6 °F 86% 30.19 in 10.0 mi WNW 4.6 mph - N/A   Overcast
2:35 AM 30.2 °F 25.4 °F 26.6 °F 86% 30.18 in 10.0 mi West 4.6 mph - N/A   Overcast
2:55 AM 32.0 °F 26.4 °F 26.6 °F 80% 30.18 in 10.0 mi West 5.8 mph - N/A   Overcast
3:15 AM 32.0 °F 25.6 °F 26.6 °F 80% 30.18 in 10.0 mi West 6.9 mph - N/A   Overcast
3:35 AM 32.0 °F 24.2 °F 26.6 °F 80% 30.19 in 10.0 mi West 9.2 mph - N/A   Overcast
3:55 AM 33.8 °F 25.3 °F 26.6 °F 75% 30.19 in 10.0 mi West 11.5 mph - N/A   Overcast
4:15 AM 32.0 °F 24.2 °F 26.6 °F 80% 30.19 in 10.0 mi West 9.2 mph - N/A   Overcast
4:35 AM 30.2 °F 22.6 °F 26.6 °F 86% 30.19 in 10.0 mi West 8.1 mph - N/A   Mostly Cloudy
4:55 AM 30.2 °F 21.9 °F 26.6 °F 86% 30.20 in 10.0 mi West 9.2 mph - N/A   Scattered Clouds
5:15 AM 28.4 °F 21.2 °F 24.8 °F 86% 30.21 in 10.0 mi West 6.9 mph - N/A   Clear
5:35 AM 28.4 °F 22.2 °F 24.8 °F 86% 30.21 in 10.0 mi WSW 5.8 mph - N/A   Clear
5:55 AM 26.6 °F 20.0 °F 23.0 °F 86% 30.21 in 10.0 mi West 5.8 mph - N/A   Clear
6:15 AM 26.6 °F 18.2 °F 23.0 °F 86% 30.21 in 1.0 mi West 8.1 mph - N/A   Overcast
6:35 AM 26.6 °F 16.8 °F 24.8 °F 93% 30.21 in 1.0 mi West 10.4 mph - N/A   Overcast
6:55 AM 26.6 °F 17.5 °F 24.8 °F 93% 30.21 in 0.8 mi West 9.2 mph - N/A   Overcast
7:15 AM 26.6 °F 16.2 °F 24.8 °F 93% 30.23 in 0.5 mi West 11.5 mph - N/A   Overcast
7:35 AM 26.6 °F 17.5 °F 24.8 °F 93% 30.24 in 0.5 mi West 9.2 mph - N/A   Overcast
7:55 AM 26.6 °F 18.2 °F 24.8 °F 93% 30.25 in 0.5 mi West 8.1 mph - N/A   Overcast
8:15 AM 26.6 °F 16.8 °F 24.8 °F 93% 30.25 in 0.8 mi West 10.4 mph - N/A   Overcast
8:35 AM 26.6 °F 17.5 °F 24.8 °F 93% 30.25 in 1.8 mi West 9.2 mph - N/A   Overcast
8:55 AM 28.4 °F 21.2 °F 26.6 °F 93% 30.26 in 2.5 mi WSW 6.9 mph - N/A   Overcast
9:15 AM 28.4 °F 19.1 °F 26.6 °F 93% 30.26 in 10.0 mi West 10.4 mph - N/A   Overcast
9:35 AM 30.2 °F 20.2 °F 26.6 °F 86% 30.26 in 10.0 mi West 12.7 mph - N/A   Partly Cloudy
9:55 AM 30.2 °F 19.8 °F 26.6 °F 86% 30.27 in 10.0 mi West 13.8 mph - N/A   Clear
10:15 AM 32.0 °F 22.1 °F 26.6 °F 80% 30.27 in 10.0 mi WNW 13.8 mph - N/A   Clear
10:35 AM 33.8 °F 24.3 °F 24.8 °F 70% 30.27 in 10.0 mi WNW 13.8 mph - N/A   Clear
10:55 AM 33.8 °F 23.5 °F 24.8 °F 70% 30.28 in 10.0 mi WNW 16.1 mph - N/A   Clear
11:15 AM 33.8 °F 23.9 °F 24.8 °F 70% 30.28 in 10.0 mi WNW 15.0 mph - N/A   Clear
11:35 AM 33.8 °F 24.3 °F 24.8 °F 70% 30.28 in 10.0 mi WNW 13.8 mph - N/A   Clear
11:55 AM 35.6 °F 27.5 °F 24.8 °F 65% 30.27 in 10.0 mi West 11.5 mph - N/A   Clear
12:15 PM 35.6 °F 26.2 °F 24.8 °F 65% 30.27 in 10.0 mi WNW 15.0 mph - N/A   Clear
12:35 PM 35.6 °F 26.2 °F 24.8 °F 65% 30.27 in 10.0 mi WNW 15.0 mph - 0.01 in   Clear
12:55 PM 35.6 °F 25.9 °F 24.8 °F 65% 30.27 in 10.0 mi WNW 16.1 mph - 0.01 in   Clear
1:15 PM 37.4 °F 27.8 °F 24.8 °F 60% 30.27 in 10.0 mi WNW 17.3 mph - N/A   Clear
1:35 PM 37.4 °F 28.9 °F 26.6 °F 65% 30.27 in 10.0 mi WNW 13.8 mph - N/A   Clear
1:55 PM 37.4 °F 28.2 °F 26.6 °F 65% 30.27 in 10.0 mi WNW 16.1 mph - N/A   Clear
2:15 PM 37.4 °F 29.3 °F 24.8 °F 60% 30.26 in 10.0 mi West 12.7 mph - N/A   Clear
2:35 PM 37.4 °F 29.3 °F 24.8 °F 60% 30.26 in 10.0 mi West 12.7 mph - N/A   Clear
2:55 PM 37.4 °F 28.5 °F 23.0 °F 56% 30.26 in 10.0 mi West 15.0 mph - N/A   Clear
3:15 PM 37.4 °F 28.9 °F 23.0 °F 56% 30.25 in 10.0 mi West 13.8 mph - N/A   Clear
3:35 PM 35.6 °F 26.2 °F 23.0 °F 60% 30.25 in 10.0 mi WSW 15.0 mph - N/A   Clear
3:55 PM 35.6 °F 27.5 °F 23.0 °F 60% 30.24 in 10.0 mi West 11.5 mph - N/A   Clear
4:15 PM 35.6 °F 27.5 °F 24.8 °F 65% 30.24 in 10.0 mi West 11.5 mph - N/A   Clear
4:35 PM 35.6 °F 28.0 °F 24.8 °F 65% 30.23 in 10.0 mi West 10.4 mph - N/A   Clear
4:55 PM 35.6 °F 27.5 °F 24.8 °F 65% 30.23 in 10.0 mi WSW 11.5 mph - N/A   Clear
5:15 PM 33.8 °F 24.8 °F 24.8 °F 70% 30.23 in 10.0 mi WSW 12.7 mph 17.3 mph N/A   Clear
5:35 PM 33.8 °F 24.8 °F 23.0 °F 65% 30.23 in 10.0 mi West 12.7 mph - N/A   Clear
5:55 PM 33.8 °F 24.8 °F 23.0 °F 65% 30.23 in 10.0 mi WSW 12.7 mph - N/A   Clear
6:15 PM 33.8 °F 23.9 °F 23.0 °F 65% 30.23 in 10.0 mi West 15.0 mph - N/A   Clear
6:35 PM 33.8 °F 23.2 °F 23.0 °F 65% 30.23 in 10.0 mi WSW 17.3 mph - N/A   Clear
6:55 PM 33.8 °F 23.5 °F 23.0 °F 65% 30.23 in 10.0 mi WSW 16.1 mph 23.0 mph N/A   Clear
7:15 PM 32.0 °F 21.6 °F 23.0 °F 69% 30.23 in 10.0 mi WSW 15.0 mph - N/A   Clear
7:35 PM 33.8 °F 23.9 °F 23.0 °F 65% 30.22 in 10.0 mi WSW 15.0 mph 20.7 mph N/A   Clear
7:55 PM 33.8 °F 24.3 °F 23.0 °F 65% 30.22 in 10.0 mi WSW 13.8 mph - N/A   Clear
8:15 PM 33.8 °F 24.3 °F 23.0 °F 65% 30.22 in 10.0 mi WSW 13.8 mph 23.0 mph N/A   Clear
8:35 PM 33.8 °F 23.9 °F 23.0 °F 65% 30.22 in 10.0 mi WSW 15.0 mph 19.6 mph N/A   Clear
8:55 PM 33.8 °F 24.8 °F 23.0 °F 65% 30.22 in 10.0 mi WSW 12.7 mph - N/A   Clear
9:15 PM 33.8 °F 24.3 °F 23.0 °F 65% 30.22 in 10.0 mi WSW 13.8 mph - N/A   Clear
9:35 PM 33.8 °F 24.8 °F 23.0 °F 65% 30.22 in 10.0 mi WSW 12.7 mph - N/A   Clear
9:55 PM 33.8 °F 24.3 °F 24.8 °F 70% 30.21 in 10.0 mi WSW 13.8 mph - N/A   Clear
10:15 PM 33.8 °F 25.3 °F 23.0 °F 65% 30.21 in 10.0 mi WSW 11.5 mph - N/A   Clear
10:35 PM 32.0 °F 22.5 °F 23.0 °F 69% 30.21 in 10.0 mi WSW 12.7 mph - N/A   Clear
10:55 PM 32.0 °F 23.0 °F 23.0 °F 69% 30.21 in 10.0 mi WSW 11.5 mph - N/A   Clear
11:15 PM 32.0 °F 23.0 °F 23.0 °F 69% 30.20 in 10.0 mi WSW 11.5 mph - N/A   Clear
11:35 PM 30.2 °F 21.9 °F 23.0 °F 75% 30.19 in 10.0 mi WSW 9.2 mph - N/A   Clear
11:55 PM 30.2 °F 21.3 °F 23.0 °F 75% 30.19 in 10.0 mi WSW 10.4 mph - N/A   Clear